weather.gov     
National Weather Service

Terminal Aerodrome Forecast
NWS Homepage
This page is being discontinued on March 12, 2014.
The same data is available at this site. Please update your bookmarks.
Thank you, and we apologize for the inconvenience.
Please send an email to SR-SRH.Webmaster@noaa.gov with any concerns.


Current Version
Previous Version:    01  02  03  04  05  06  07  08  09  10  11  12  13  14  
[Printable]
465
FTUS41 KGYX 011404 AAC
TAFHIE
TAF AMD
KHIE 011404Z 0114/0212 00000KT P6SM SCT050 SCT070
     FM011800 00000KT P6SM SCT070
     FM020100 00000KT 4SM BR SKC
     FM020300 00000KT 3/4SM BR BKN002=




465
FTUS41 KGYX 011404 AAC
TAFHIE
TAF AMD
KHIE 011404Z 0114/0212 00000KT P6SM SCT050 SCT070
     FM011800 00000KT P6SM SCT070
     FM020100 00000KT 4SM BR SKC
     FM020300 00000KT 3/4SM BR BKN002=


U.S. Dept. of Commerce
NOAA National Weather Service
1325 East West Highway
Silver Spring, MD 20910
E-mail: w-nws.webmaster@noaa.gov
Page last modified: May 16, 2007
NATIONAL WEATHER SERVICE: for Safety, for Work, for Fun - FOR LIFE